| time (UTC) | temp F | wind direction | speed MPH | gust MPH | rain 1hr in | rain 24hr in | rain mn in | humidity % | barometer mb |
| 20260508173548 | 72 | 0.0 | 0.0 | 0.00 | 0.00 | 0.00 | 38 | 1014.2 | |
| 20260508173057 | 70 | 0.0 | 0.0 | 0.00 | 0.00 | 0.00 | 35 | 1014.1 | |
| 20260508172553 | 70 | 0.0 | 0.0 | 0.00 | 0.00 | 0.00 | 36 | 1014.1 | |
| 20260508172049 | 71 | 0.0 | 0.0 | 0.00 | 0.00 | 0.00 | 37 | 1014.3 | |
| 20260508171557 | 70 | 0.0 | 0.0 | 0.00 | 0.00 | 0.00 | 35 | 1014.3 | |
| 20260508171110 | 69 | 0.0 | 0.0 | 0.00 | 0.00 | 0.00 | 36 | 1014.3 | |
| 20260508170548 | 69 | 0.0 | 0.0 | 0.00 | 0.00 | 0.00 | 36 | 1014.5 | |
| 20260508170101 | 69 | 0.0 | 0.0 | 0.00 | 0.00 | 0.00 | 37 | 1014.5 | |
| 20260508165546 | 68 | 0.0 | 0.0 | 0.00 | 0.00 | 0.00 | 36 | 1014.6 | |
| 20260508165048 | 69 | 0.0 | 0.0 | 0.00 | 0.00 | 0.00 | 38 | 1014.8 | |
| 20260508164553 | 67 | 0.0 | 0.0 | 0.00 | 0.00 | 0.00 | 38 | 1014.6 | |
| 20260508164054 | 68 | 0.0 | 0.0 | 0.00 | 0.00 | 0.00 | 38 | 1014.9 | |
| 20260508163549 | 68 | 0.0 | 0.0 | 0.00 | 0.00 | 0.00 | 40 | 1015.0 | |
| 20260508163105 | 68 | 0.0 | 0.0 | 0.00 | 0.00 | 0.00 | 39 | 1014.9 | |
| 20260508162546 | 67 | 0.0 | 0.0 | 0.00 | 0.00 | 0.00 | 38 | 1015.0 | |
| 20260508162051 | 66 | 0.0 | 0.0 | 0.00 | 0.00 | 0.00 | 41 | 1015.1 | |
| 20260508161557 | 67 | 0.0 | 0.0 | 0.00 | 0.00 | 0.00 | 39 | 1015.1 | |
| 20260508161054 | 66 | 0.0 | 0.0 | 0.00 | 0.00 | 0.00 | 38 | 1015.2 | |
| 20260508160548 | 66 | 0.0 | 0.0 | 0.00 | 0.00 | 0.00 | 40 | 1015.3 | |
| 20260508160057 | 66 | 0.0 | 0.0 | 0.00 | 0.00 | 0.00 | 40 | 1015.3 | |
| 20260508155548 | 65 | 0.0 | 0.0 | 0.00 | 0.00 | 0.00 | 42 | 1015.2 | |
| 20260508155048 | 65 | 0.0 | 0.0 | 0.00 | 0.00 | 0.00 | 39 | 1015.3 | |
| 20260508154556 | 65 | 0.0 | 0.0 | 0.00 | 0.00 | 0.00 | 39 | 1015.3 | |
| 20260508154048 | 65 | 0.0 | 0.0 | 0.00 | 0.00 | 0.00 | 41 | 1015.5 | |
| 20260508153549 | 64 | 0.0 | 0.0 | 0.00 | 0.00 | 0.00 | 39 | 1015.5 | |
| 20260508153106 | 65 | 0.0 | 0.0 | 0.00 | 0.00 | 0.00 | 42 | 1015.6 | |
| 20260508152550 | 64 | 0.0 | 0.0 | 0.00 | 0.00 | 0.00 | 44 | 1015.5 | |
| 20260508152048 | 63 | 0.0 | 0.0 | 0.00 | 0.00 | 0.00 | 43 | 1015.6 | |
| 20260508151557 | 63 | 0.0 | 0.0 | 0.00 | 0.00 | 0.00 | 43 | 1015.6 | |
| 20260508151047 | 63 | 0.0 | 0.0 | 0.00 | 0.00 | 0.00 | 47 | 1015.7 | |
| 20260508150549 | 62 | 0.0 | 0.0 | 0.00 | 0.00 | 0.00 | 44 | 1015.6 | |
| 20260508145550 | 61 | 0.0 | 0.0 | 0.00 | 0.00 | 0.00 | 45 | 1015.8 | |
| 20260508145047 | 61 | 0.0 | 0.0 | 0.00 | 0.00 | 0.00 | 47 | 1015.8 | |
| 20260508144555 | 60 | 0.0 | 0.0 | 0.00 | 0.00 | 0.00 | 47 | 1015.9 | |
| 20260508144048 | 60 | 0.0 | 0.0 | 0.00 | 0.00 | 0.00 | 48 | 1015.9 | |
| 20260508143548 | 60 | 0.0 | 0.0 | 0.00 | 0.00 | 0.00 | 47 | 1015.9 | |
| 20260508143117 | 59 | 0.0 | 0.0 | 0.00 | 0.00 | 0.00 | 53 | 1015.9 | |
| 20260508142548 | 59 | 0.0 | 0.0 | 0.00 | 0.00 | 0.00 | 51 | 1015.9 | |
| 20260508142048 | 58 | 0.0 | 0.0 | 0.00 | 0.00 | 0.00 | 51 | 1015.7 | |
| 20260508141605 | 58 | 0.0 | 0.0 | 0.00 | 0.00 | 0.00 | 50 | 1015.9 | |
| 20260508141047 | 58 | 0.0 | 0.0 | 0.00 | 0.00 | 0.00 | 52 | 1016.0 | |
| 20260508140550 | 57 | 0.0 | 0.0 | 0.00 | 0.00 | 0.00 | 56 | 1016.0 | |
| 20260508140118 | 56 | 0.0 | 0.0 | 0.00 | 0.00 | 0.00 | 56 | 1016.0 | |
| 20260508135548 | 56 | 0.0 | 0.0 | 0.00 | 0.01 | 0.00 | 57 | 1016.0 | |
| 20260508135048 | 55 | 0.0 | 0.0 | 0.00 | 0.01 | 0.00 | 59 | 1015.9 | |
| 20260508134556 | 54 | 0.0 | 0.0 | 0.00 | 0.01 | 0.00 | 60 | 1016.1 | |
| 20260508134047 | 53 | 0.0 | 0.0 | 0.00 | 0.01 | 0.00 | 61 | 1016.1 | |
| 20260508133548 | 53 | 0.0 | 0.0 | 0.00 | 0.01 | 0.00 | 65 | 1016.2 | |
| 20260508133103 | 52 | 0.0 | 0.0 | 0.00 | 0.01 | 0.00 | 64 | 1016.2 | |
| 20260508132547 | 52 | 0.0 | 0.0 | 0.00 | 0.01 | 0.00 | 67 | 1016.3 | |
| 20260508132048 | 51 | 0.0 | 0.0 | 0.00 | 0.01 | 0.00 | 70 | 1016.2 | |
| 20260508131558 | 51 | 0.0 | 0.0 | 0.00 | 0.01 | 0.00 | 70 | 1016.3 | |
| 20260508131047 | 50 | 0.0 | 0.0 | 0.00 | 0.01 | 0.00 | 74 | 1016.3 | |
| 20260508130551 | 50 | 0.0 | 0.0 | 0.00 | 0.01 | 0.00 | 76 | 1016.3 | |
| 20260508130055 | 49 | 0.0 | 0.0 | 0.00 | 0.01 | 0.00 | 77 | 1016.2 | |
| 20260508125548 | 49 | 0.0 | 0.0 | 0.00 | 0.01 | 0.00 | 77 | 1016.3 | |
| 20260508125048 | 48 | 0.0 | 0.0 | 0.00 | 0.01 | 0.00 | 79 | 1016.4 | |
| 20260508124557 | 48 | 0.0 | 0.0 | 0.00 | 0.01 | 0.00 | 79 | 1016.3 | |
| 20260508124048 | 47 | 0.0 | 0.0 | 0.00 | 0.01 | 0.00 | 80 | 1016.2 | |
| 20260508123548 | 46 | 0.0 | 0.0 | 0.00 | 0.01 | 0.00 | 82 | 1016.2 | |
| 20260508123055 | 46 | 0.0 | 0.0 | 0.00 | 0.01 | 0.00 | 85 | 1016.2 | |
| 20260508122547 | 46 | 0.0 | 0.0 | 0.00 | 0.01 | 0.00 | 86 | 1016.1 | |
| 20260508122047 | 45 | 0.0 | 0.0 | 0.00 | 0.01 | 0.00 | 88 | 1016.3 | |
| 20260508121556 | 45 | 0.0 | 0.0 | 0.00 | 0.01 | 0.00 | 88 | 1016.2 | |
| 20260508121047 | 44 | 0.0 | 0.0 | 0.00 | 0.01 | 0.00 | 89 | 1016.1 | |
| 20260508120548 | 44 | 0.0 | 0.0 | 0.00 | 0.01 | 0.00 | 89 | 1016.1 | |
| 20260508120111 | 44 | 0.0 | 0.0 | 0.00 | 0.01 | 0.00 | 89 | 1016.1 | |
| 20260508115550 | 43 | 0.0 | 0.0 | 0.00 | 0.01 | 0.00 | 88 | 1016.0 | |
| 20260508115052 | 43 | 0.0 | 0.0 | 0.00 | 0.01 | 0.00 | 87 | 1016.0 | |
| 20260508114602 | 43 | 0.0 | 0.0 | 0.00 | 0.01 | 0.00 | 87 | 1015.7 | |
| 20260508114048 | 42 | 0.0 | 0.0 | 0.00 | 0.01 | 0.00 | 87 | 1015.7 | |
| 20260508113548 | 42 | 0.0 | 0.0 | 0.00 | 0.01 | 0.00 | 86 | 1015.9 | |
| 20260508113102 | 42 | 0.0 | 0.0 | 0.00 | 0.01 | 0.00 | 86 | 1015.8 | |
| 20260508112548 | 42 | 0.0 | 0.0 | 0.00 | 0.01 | 0.00 | 85 | 1015.7 | |
| 20260508112047 | 42 | 0.0 | 0.0 | 0.00 | 0.01 | 0.00 | 85 | 1015.8 | |
| 20260508111552 | 42 | 0.0 | 0.0 | 0.00 | 0.01 | 0.00 | 85 | 1015.7 | |
| 20260508111103 | 42 | 0.0 | 0.0 | 0.00 | 0.01 | 0.00 | 85 | 1015.6 | |
| 20260508110546 | 42 | 0.0 | 0.0 | 0.00 | 0.01 | 0.00 | 84 | 1015.5 | |
| 20260508105547 | 42 | 0.0 | 0.0 | 0.00 | 0.01 | 0.00 | 84 | 1015.2 | |
| 20260508105047 | 42 | 0.0 | 0.0 | 0.00 | 0.01 | 0.00 | 84 | 1015.0 | |
| 20260508104557 | 42 | 0.0 | 0.0 | 0.00 | 0.01 | 0.00 | 83 | 1014.9 | |
| 20260508104047 | 42 | 0.0 | 0.0 | 0.00 | 0.01 | 0.00 | 83 | 1014.8 | |
| 20260508103547 | 42 | 0.0 | 0.0 | 0.00 | 0.01 | 0.00 | 83 | 1014.9 | |
| 20260508103057 | 42 | 0.0 | 0.0 | 0.00 | 0.01 | 0.00 | 83 | 1014.9 | |
| 20260508102549 | 42 | 0.0 | 0.0 | 0.00 | 0.01 | 0.00 | 82 | 1014.8 | |
| 20260508102048 | 43 | 0.0 | 0.0 | 0.00 | 0.01 | 0.00 | 82 | 1014.6 | |
| 20260508101556 | 43 | 0.0 | 0.0 | 0.00 | 0.01 | 0.00 | 82 | 1014.5 | |
| 20260508101048 | 43 | 0.0 | 0.0 | 0.00 | 0.01 | 0.00 | 81 | 1014.4 | |
| 20260508100552 | 43 | 0.0 | 0.0 | 0.00 | 0.01 | 0.00 | 81 | 1014.3 | |
| 20260508100128 | 44 | 0.0 | 0.0 | 0.00 | 0.01 | 0.00 | 81 | 1014.3 | |
| 20260508095547 | 44 | 0.0 | 0.0 | 0.00 | 0.01 | 0.00 | 81 | 1014.2 | |
| 20260508095046 | 44 | 0.0 | 0.0 | 0.00 | 0.01 | 0.00 | 81 | 1014.2 | |
| 20260508094556 | 44 | 0.0 | 0.0 | 0.00 | 0.01 | 0.00 | 80 | 1014.1 | |
| 20260508094048 | 44 | 0.0 | 0.0 | 0.00 | 0.01 | 0.00 | 80 | 1014.1 | |
| 20260508093558 | 45 | 0.0 | 0.0 | 0.00 | 0.01 | 0.00 | 80 | 1014.1 | |
| 20260508093055 | 45 | 0.0 | 0.0 | 0.00 | 0.01 | 0.00 | 79 | 1014.2 | |
| 20260508092550 | 45 | 0.0 | 0.0 | 0.00 | 0.01 | 0.00 | 79 | 1014.3 | |
| 20260508092049 | 45 | 0.0 | 0.0 | 0.00 | 0.01 | 0.00 | 80 | 1014.3 | |
| 20260508091610 | 45 | 0.0 | 0.0 | 0.00 | 0.01 | 0.00 | 80 | 1014.3 | |
| 20260508091047 | 46 | 0.0 | 0.0 | 0.00 | 0.01 | 0.00 | 80 | 1014.2 | |
| 20260508090548 | 46 | 0.0 | 0.0 | 0.00 | 0.01 | 0.00 | 79 | 1014.2 | |
| 20260508090055 | 46 | 0.0 | 0.0 | 0.00 | 0.01 | 0.00 | 79 | 1014.2 | |
| 20260508085555 | 46 | 0.0 | 0.0 | 0.00 | 0.01 | 0.00 | 79 | 1014.1 | |
| 20260508085047 | 46 | 0.0 | 0.0 | 0.00 | 0.01 | 0.00 | 80 | 1014.0 | |
| 20260508084557 | 46 | 0.0 | 0.0 | 0.00 | 0.01 | 0.00 | 79 | 1014.0 | |
| 20260508084049 | 46 | 0.0 | 0.0 | 0.00 | 0.01 | 0.00 | 79 | 1013.9 | |
| 20260508083545 | 46 | 0.0 | 0.0 | 0.00 | 0.01 | 0.00 | 78 | 1013.9 | |
| 20260508083056 | 46 | 0.0 | 0.0 | 0.00 | 0.01 | 0.00 | 78 | 1014.0 | |
| 20260508082551 | 46 | 0.0 | 0.0 | 0.00 | 0.01 | 0.00 | 79 | 1014.0 | |
| 20260508082050 | 46 | 0.0 | 0.0 | 0.00 | 0.01 | 0.00 | 80 | 1013.9 | |
| 20260508081612 | 46 | 0.0 | 0.0 | 0.00 | 0.01 | 0.00 | 81 | 1013.8 | |
| 20260508081127 | 46 | 0.0 | 0.0 | 0.00 | 0.01 | 0.00 | 83 | 1013.8 | |
| 20260508080545 | 46 | 0.0 | 0.0 | 0.00 | 0.01 | 0.00 | 83 | 1013.9 | |
| 20260508080059 | 46 | 0.0 | 0.0 | 0.00 | 0.01 | 0.00 | 82 | 1013.7 | |
| 20260508075548 | 46 | 0.0 | 0.0 | 0.00 | 0.01 | 0.00 | 83 | 1013.6 | |
| 20260508075048 | 46 | 0.0 | 0.0 | 0.00 | 0.01 | 0.00 | 83 | 1013.7 | |
| 20260508074600 | 46 | 0.0 | 0.0 | 0.00 | 0.01 | 0.00 | 85 | 1013.7 | |
| 20260508074048 | 46 | 0.0 | 0.0 | 0.00 | 0.01 | 0.00 | 86 | 1013.8 | |
| 20260508073550 | 45 | 0.0 | 0.0 | 0.00 | 0.01 | 0.00 | 87 | 1013.6 | |
| 20260508073055 | 45 | 0.0 | 0.0 | 0.00 | 0.01 | 0.00 | 88 | 1013.6 | |
| 20260508072545 | 45 | 0.0 | 0.0 | 0.00 | 0.01 | 0.00 | 89 | 1013.6 | |
| 20260508072045 | 45 | 0.0 | 0.0 | 0.00 | 0.01 | 0.00 | 90 | 1013.5 | |
| 20260508071610 | 45 | 0.0 | 0.0 | 0.00 | 0.01 | 0.00 | 90 | 1013.4 | |
| 20260508071049 | 45 | 0.0 | 0.0 | 0.00 | 0.01 | 0.00 | 90 | 1013.3 | |
| 20260508070549 | 45 | 0.0 | 0.0 | 0.00 | 0.01 | 0.00 | 90 | 1013.3 | |
| 20260508070058 | 46 | 0.0 | 0.0 | 0.00 | 0.01 | 0.00 | 90 | 1013.3 | |
| 20260508065549 | 46 | 0.0 | 0.0 | 0.00 | 0.01 | 0.00 | 90 | 1013.1 | |
| 20260508065048 | 46 | 0.0 | 0.0 | 0.00 | 0.01 | 0.00 | 90 | 1013.0 | |
| 20260508064556 | 46 | 0.0 | 0.0 | 0.00 | 0.01 | 0.00 | 90 | 1012.9 | |
| 20260508064048 | 46 | 0.0 | 0.0 | 0.00 | 0.01 | 0.00 | 90 | 1012.8 | |
| 20260508063547 | 46 | 0.0 | 0.0 | 0.00 | 0.01 | 0.00 | 90 | 1012.9 | |
| 20260508063058 | 47 | 0.0 | 0.0 | 0.00 | 0.01 | 0.00 | 90 | 1012.7 | |
| 20260508062547 | 47 | 0.0 | 0.0 | 0.00 | 0.01 | 0.00 | 90 | 1012.7 | |
| 20260508062047 | 47 | 0.0 | 0.0 | 0.00 | 0.01 | 0.00 | 90 | 1012.8 | |
| 20260508061557 | 47 | 0.0 | 0.0 | 0.00 | 0.01 | 0.00 | 90 | 1012.7 | |
| 20260508061049 | 47 | 0.0 | 0.0 | 0.00 | 0.01 | 0.00 | 90 | 1012.6 | |
| 20260508060549 | 47 | 0.0 | 0.0 | 0.00 | 0.01 | 0.00 | 90 | 1012.7 | |
| 20260508060111 | 47 | 0.0 | 0.0 | 0.00 | 0.01 | 0.00 | 90 | 1012.5 | |
| 20260508055550 | 47 | 0.0 | 0.0 | 0.00 | 0.06 | 0.00 | 90 | 1012.6 | |
| 20260508055047 | 47 | 0.0 | 0.0 | 0.00 | 0.06 | 0.00 | 90 | 1012.7 | |
| 20260508054639 | 47 | 0.0 | 0.0 | 0.00 | 0.06 | 0.00 | 90 | 1012.7 | |
| 20260508054049 | 47 | 0.0 | 0.0 | 0.00 | 0.06 | 0.00 | 90 | 1012.8 | |
| 20260508053548 | 47 | 0.0 | 0.0 | 0.00 | 0.06 | 0.00 | 89 | 1012.8 | |
| 20260508053056 | 48 | 0.0 | 0.0 | 0.00 | 0.06 | 0.00 | 89 | 1012.8 | |
| 20260508052549 | 48 | 0.0 | 0.0 | 0.00 | 0.06 | 0.00 | 89 | 1012.7 | |
| 20260508052047 | 48 | 0.0 | 0.0 | 0.00 | 0.06 | 0.00 | 89 | 1012.8 | |
| 20260508051551 | 48 | 0.0 | 0.0 | 0.00 | 0.06 | 0.00 | 89 | 1012.8 | |
| 20260508051048 | 48 | 0.0 | 0.0 | 0.00 | 0.06 | 0.00 | 89 | 1012.6 | |
| 20260508050548 | 48 | 0.0 | 0.0 | 0.00 | 0.06 | 0.00 | 89 | 1012.6 | |
| 20260508050053 | 48 | 0.0 | 0.0 | 0.00 | 0.06 | 0.00 | 89 | 1012.4 | |
| 20260508045547 | 48 | 0.0 | 0.0 | 0.00 | 0.37 | 0.00 | 89 | 1012.4 | |
| 20260508045047 | 48 | 0.0 | 0.0 | 0.00 | 0.37 | 0.00 | 89 | 1012.4 | |
| 20260508044556 | 49 | 0.0 | 0.0 | 0.00 | 0.37 | 0.00 | 89 | 1012.3 | |
| 20260508044047 | 49 | 0.0 | 0.0 | 0.00 | 0.37 | 0.00 | 89 | 1012.3 | |
| 20260508043547 | 49 | 0.0 | 0.0 | 0.00 | 0.37 | 0.00 | 89 | 1012.2 | |
| 20260508043100 | 49 | 0.0 | 0.0 | 0.00 | 0.37 | 0.00 | 89 | 1012.1 | |
| 20260508042551 | 49 | 0.0 | 0.0 | 0.00 | 0.37 | 0.00 | 89 | 1012.1 | |
| 20260508042048 | 49 | 0.0 | 0.0 | 0.00 | 0.37 | 0.00 | 88 | 1012.1 | |
| 20260508041553 | 49 | 0.0 | 0.0 | 0.00 | 0.37 | 0.00 | 88 | 1012.0 | |
| 20260508041100 | 49 | 0.0 | 0.0 | 0.00 | 0.37 | 0.00 | 88 | 1012.0 | |
| 20260508040548 | 49 | 0.0 | 0.0 | 0.00 | 0.37 | 0.00 | 88 | 1012.1 | |
| 20260508040056 | 49 | 0.0 | 0.0 | 0.00 | 0.37 | 0.00 | 88 | 1012.1 | |
| 20260508035547 | 49 | 0.0 | 0.0 | 0.00 | 0.37 | 0.37 | 88 | 1012.0 | |
| 20260508035048 | 49 | 0.0 | 0.0 | 0.00 | 0.37 | 0.37 | 87 | 1011.9 | |
| 20260508034554 | 50 | 0.0 | 0.0 | 0.00 | 0.37 | 0.37 | 87 | 1011.8 | |
| 20260508034047 | 50 | 0.0 | 0.0 | 0.00 | 0.37 | 0.37 | 87 | 1011.7 | |
| 20260508033547 | 50 | 0.0 | 0.0 | 0.00 | 0.37 | 0.37 | 88 | 1011.7 | |
| 20260508033057 | 50 | 0.0 | 0.0 | 0.00 | 0.37 | 0.37 | 87 | 1011.7 | |
| 20260508032552 | 50 | 0.0 | 0.0 | 0.00 | 0.37 | 0.37 | 87 | 1011.6 | |
| 20260508032048 | 50 | 0.0 | 0.0 | 0.00 | 0.37 | 0.37 | 87 | 1011.6 | |
| 20260508031601 | 50 | 0.0 | 0.0 | 0.00 | 0.37 | 0.37 | 87 | 1011.6 | |
| 20260508031048 | 50 | 0.0 | 0.0 | 0.00 | 0.37 | 0.37 | 87 | 1011.6 | |
| 20260508030549 | 50 | 0.0 | 0.0 | 0.00 | 0.37 | 0.37 | 87 | 1011.6 | |
| 20260508030104 | 50 | 0.0 | 0.0 | 0.00 | 0.37 | 0.37 | 87 | 1011.6 | |
| 20260508025551 | 50 | 0.0 | 0.0 | 0.00 | 0.37 | 0.37 | 87 | 1011.6 | |
| 20260508025048 | 50 | 0.0 | 0.0 | 0.00 | 0.37 | 0.37 | 86 | 1011.6 | |
| 20260508024604 | 50 | 0.0 | 0.0 | 0.00 | 0.37 | 0.37 | 86 | 1011.6 | |
| 20260508024048 | 51 | 0.0 | 0.0 | 0.00 | 0.37 | 0.37 | 86 | 1011.6 | |
| 20260508023548 | 51 | 0.0 | 0.0 | 0.00 | 0.37 | 0.37 | 86 | 1011.5 | |
| 20260508023052 | 51 | 0.0 | 0.0 | 0.00 | 0.37 | 0.37 | 86 | 1011.5 | |
| 20260508022551 | 51 | 0.0 | 0.0 | 0.00 | 0.37 | 0.37 | 86 | 1011.4 | |
| 20260508022111 | 51 | 0.0 | 0.0 | 0.00 | 0.37 | 0.37 | 85 | 1011.6 | |
| 20260508021554 | 51 | 0.0 | 0.0 | 0.00 | 0.37 | 0.37 | 85 | 1011.5 | |
| 20260508021047 | 51 | 0.0 | 0.0 | 0.00 | 0.37 | 0.37 | 85 | 1011.4 | |
| 20260508020545 | 51 | 0.0 | 0.0 | 0.00 | 0.37 | 0.37 | 85 | 1011.5 | |
| 20260508020104 | 51 | 0.0 | 0.0 | 0.00 | 0.37 | 0.37 | 84 | 1011.4 | |
| 20260508015545 | 51 | 0.0 | 0.0 | 0.00 | 0.37 | 0.37 | 84 | 1011.2 | |
| 20260508015045 | 51 | 0.0 | 0.0 | 0.00 | 0.37 | 0.37 | 83 | 1011.3 | |
| 20260508014611 | 51 | 0.0 | 0.0 | 0.00 | 0.37 | 0.37 | 83 | 1011.2 | |
| 20260508014049 | 51 | 0.0 | 0.0 | 0.00 | 0.37 | 0.37 | 83 | 1011.1 | |
| 20260508013548 | 51 | 0.0 | 0.0 | 0.00 | 0.37 | 0.37 | 83 | 1011.1 | |
| 20260508013059 | 52 | 0.0 | 0.0 | 0.00 | 0.37 | 0.37 | 82 | 1011.1 | |
| 20260508012548 | 52 | 0.0 | 0.0 | 0.00 | 0.37 | 0.37 | 81 | 1011.1 | |
| 20260508012048 | 52 | 0.0 | 0.0 | 0.00 | 0.37 | 0.37 | 81 | 1011.1 | |
| 20260508011554 | 52 | 0.0 | 0.0 | 0.00 | 0.37 | 0.37 | 80 | 1011.0 | |
| 20260508011050 | 52 | 0.0 | 0.0 | 0.00 | 0.37 | 0.37 | 80 | 1011.0 | |
| 20260508010548 | 53 | 0.0 | 0.0 | 0.00 | 0.37 | 0.37 | 79 | 1011.0 | |
| 20260508005549 | 53 | 0.0 | 0.0 | 0.00 | 0.37 | 0.37 | 78 | 1010.8 | |
| 20260508005047 | 53 | 0.0 | 0.0 | 0.00 | 0.37 | 0.37 | 78 | 1010.8 | |
| 20260508004557 | 53 | 0.0 | 0.0 | 0.00 | 0.37 | 0.37 | 77 | 1010.6 | |
| 20260508004050 | 54 | 0.0 | 0.0 | 0.00 | 0.37 | 0.37 | 76 | 1010.7 | |
| 20260508003548 | 54 | 0.0 | 0.0 | 0.00 | 0.37 | 0.37 | 76 | 1010.6 | |
| 20260508003056 | 54 | 0.0 | 0.0 | 0.00 | 0.37 | 0.37 | 75 | 1010.5 | |
| 20260508002549 | 54 | 0.0 | 0.0 | 0.00 | 0.37 | 0.37 | 74 | 1010.5 | |
| 20260508002048 | 55 | 0.0 | 0.0 | 0.00 | 0.37 | 0.37 | 73 | 1010.4 | |
| 20260508001600 | 55 | 0.0 | 0.0 | 0.00 | 0.37 | 0.37 | 73 | 1010.4 | |
| 20260508001048 | 55 | 0.0 | 0.0 | 0.00 | 0.37 | 0.37 | 73 | 1010.4 | |
| 20260508000549 | 55 | 0.0 | 0.0 | 0.00 | 0.37 | 0.37 | 72 | 1010.3 | |
| 20260508000101 | 56 | 0.0 | 0.0 | 0.00 | 0.37 | 0.37 | 71 | 1010.3 | |
| 20260507235548 | 56 | 0.0 | 0.0 | 0.00 | 0.37 | 0.37 | 70 | 1010.1 | |
| 20260507235047 | 56 | 0.0 | 0.0 | 0.00 | 0.37 | 0.37 | 71 | 1010.1 | |
| 20260507234601 | 56 | 0.0 | 0.0 | 0.00 | 0.37 | 0.37 | 70 | 1010.0 | |
| 20260507234049 | 56 | 0.0 | 0.0 | 0.00 | 0.37 | 0.37 | 69 | 1010.0 | |
| 20260507233548 | 57 | 0.0 | 0.0 | 0.00 | 0.37 | 0.37 | 69 | 1010.1 | |
| 20260507233052 | 57 | 0.0 | 0.0 | 0.00 | 0.37 | 0.37 | 68 | 1010.0 | |
| 20260507232550 | 57 | 0.0 | 0.0 | 0.00 | 0.37 | 0.37 | 68 | 1009.9 | |
| 20260507232047 | 57 | 0.0 | 0.0 | 0.00 | 0.37 | 0.37 | 68 | 1009.8 | |
| 20260507231557 | 57 | 0.0 | 0.0 | 0.00 | 0.37 | 0.37 | 68 | 1009.8 | |
| 20260507231054 | 58 | 0.0 | 0.0 | 0.00 | 0.37 | 0.37 | 67 | 1009.7 | |
| 20260507230550 | 58 | 0.0 | 0.0 | 0.00 | 0.37 | 0.37 | 67 | 1009.6 | |
| 20260507230054 | 58 | 0.0 | 0.0 | 0.00 | 0.37 | 0.37 | 67 | 1009.5 | |
| 20260507225548 | 58 | 0.0 | 0.0 | 0.00 | 0.37 | 0.37 | 67 | 1009.6 | |
| 20260507225047 | 58 | 0.0 | 0.0 | 0.00 | 0.37 | 0.37 | 66 | 1009.6 | |
| 20260507224559 | 58 | 0.0 | 0.0 | 0.00 | 0.37 | 0.37 | 65 | 1009.5 | |
| 20260507224050 | 58 | 0.0 | 0.0 | 0.00 | 0.37 | 0.37 | 64 | 1009.3 | |
| 20260507223547 | 59 | 0.0 | 0.0 | 0.00 | 0.37 | 0.37 | 65 | 1009.4 | |
| 20260507223056 | 59 | 0.0 | 0.0 | 0.00 | 0.37 | 0.37 | 65 | 1009.3 | |
| 20260507222547 | 59 | 0.0 | 0.0 | 0.00 | 0.37 | 0.37 | 66 | 1009.2 | |
| 20260507222049 | 59 | 0.0 | 0.0 | 0.00 | 0.37 | 0.37 | 66 | 1009.3 | |
| 20260507221554 | 59 | 0.0 | 0.0 | 0.00 | 0.37 | 0.37 | 66 | 1009.3 | |
| 20260507221051 | 58 | 0.0 | 0.0 | 0.00 | 0.37 | 0.37 | 65 | 1009.3 | |
| 20260507220555 | 59 | 0.0 | 0.0 | 0.00 | 0.37 | 0.37 | 66 | 1009.2 | |
| 20260507220055 | 59 | 0.0 | 0.0 | 0.00 | 0.37 | 0.37 | 64 | 1009.2 | |
| 20260507215548 | 59 | 0.0 | 0.0 | 0.00 | 0.37 | 0.37 | 63 | 1009.1 | |
| 20260507215047 | 59 | 0.0 | 0.0 | 0.00 | 0.37 | 0.37 | 63 | 1009.1 | |
| 20260507214554 | 59 | 0.0 | 0.0 | 0.00 | 0.37 | 0.37 | 65 | 1009.1 | |
| 20260507214044 | 59 | 0.0 | 0.0 | 0.00 | 0.37 | 0.37 | 63 | 1009.1 | |
| 20260507213550 | 59 | 0.0 | 0.0 | 0.00 | 0.37 | 0.37 | 63 | 1009.2 | |
| 20260507213056 | 60 | 0.0 | 0.0 | 0.00 | 0.37 | 0.37 | 63 | 1009.2 | |
| 20260507212547 | 60 | 0.0 | 0.0 | 0.00 | 0.37 | 0.37 | 62 | 1009.1 | |
| 20260507212048 | 60 | 0.0 | 0.0 | 0.00 | 0.37 | 0.37 | 63 | 1009.2 | |
| 20260507211555 | 60 | 0.0 | 0.0 | 0.00 | 0.37 | 0.37 | 62 | 1009.2 | |
| 20260507211047 | 60 | 0.0 | 0.0 | 0.00 | 0.37 | 0.37 | 61 | 1009.1 | |
| 20260507210548 | 60 | 0.0 | 0.0 | 0.00 | 0.37 | 0.37 | 60 | 1009.2 | |
| 20260507210103 | 60 | 0.0 | 0.0 | 0.00 | 0.37 | 0.37 | 59 | 1009.1 | |
| 20260507205548 | 60 | 0.0 | 0.0 | 0.00 | 0.37 | 0.37 | 58 | 1009.0 | |
| 20260507205051 | 60 | 0.0 | 0.0 | 0.00 | 0.37 | 0.37 | 60 | 1009.1 | |
| 20260507204555 | 60 | 0.0 | 0.0 | 0.00 | 0.37 | 0.37 | 61 | 1009.1 | |
| 20260507204050 | 60 | 0.0 | 0.0 | 0.00 | 0.37 | 0.37 | 60 | 1009.1 | |
| 20260507203548 | 60 | 0.0 | 0.0 | 0.00 | 0.37 | 0.37 | 58 | 1009.4 | |
| 20260507203058 | 61 | 0.0 | 0.0 | 0.00 | 0.37 | 0.37 | 61 | 1009.3 | |
| 20260507202548 | 60 | 0.0 | 0.0 | 0.00 | 0.37 | 0.37 | 59 | 1009.2 | |
| 20260507202044 | 61 | 0.0 | 0.0 | 0.00 | 0.37 | 0.37 | 63 | 1009.2 | |
| 20260507201552 | 61 | 0.0 | 0.0 | 0.00 | 0.37 | 0.37 | 58 | 1009.2 | |
| 20260507201048 | 60 | 0.0 | 0.0 | 0.00 | 0.37 | 0.37 | 59 | 1009.3 | |
| 20260507200549 | 60 | 0.0 | 0.0 | 0.00 | 0.37 | 0.37 | 64 | 1009.3 | |
| 20260507195548 | 61 | 0.0 | 0.0 | 0.00 | 0.37 | 0.37 | 59 | 1009.3 | |
| 20260507195048 | 61 | 0.0 | 0.0 | 0.00 | 0.37 | 0.37 | 64 | 1009.6 | |
| 20260507194552 | 59 | 0.0 | 0.0 | 0.00 | 0.37 | 0.37 | 67 | 1009.7 | |
| 20260507194048 | 59 | 0.0 | 0.0 | 0.00 | 0.37 | 0.37 | 66 | 1009.7 | |
| 20260507193548 | 59 | 0.0 | 0.0 | 0.00 | 0.37 | 0.37 | 66 | 1009.8 | |
| 20260507193055 | 58 | 0.0 | 0.0 | 0.00 | 0.37 | 0.37 | 67 | 1009.7 | |
| 20260507192548 | 58 | 0.0 | 0.0 | 0.00 | 0.37 | 0.37 | 65 | 1009.6 | |
| 20260507192049 | 59 | 0.0 | 0.0 | 0.00 | 0.37 | 0.37 | 68 | 1009.7 | |
| 20260507191553 | 58 | 0.0 | 0.0 | 0.00 | 0.37 | 0.37 | 66 | 1009.8 | |
| 20260507191047 | 57 | 0.0 | 0.0 | 0.00 | 0.37 | 0.37 | 72 | 1009.8 | |
| 20260507190548 | 56 | 0.0 | 0.0 | 0.00 | 0.37 | 0.37 | 70 | 1009.6 | |
| 20260507190110 | 56 | 0.0 | 0.0 | 0.00 | 0.37 | 0.37 | 68 | 1009.9 | |
| 20260507185548 | 57 | 0.0 | 0.0 | 0.00 | 0.37 | 0.37 | 75 | 1010.1 | |
| 20260507185045 | 57 | 0.0 | 0.0 | 0.00 | 0.37 | 0.37 | 71 | 1010.2 | |
| 20260507184552 | 57 | 0.0 | 0.0 | 0.00 | 0.37 | 0.37 | 70 | 1010.2 | |
| 20260507184049 | 56 | 0.0 | 0.0 | 0.00 | 0.37 | 0.37 | 72 | 1010.5 | |
| 20260507183548 | 56 | 0.0 | 0.0 | 0.00 | 0.37 | 0.37 | 73 | 1009.9 | |
| 20260507183055 | 57 | 0.0 | 0.0 | 0.00 | 0.37 | 0.37 | 65 | 1010.6 | |
| 20260507182545 | 57 | 0.0 | 0.0 | 0.00 | 0.37 | 0.37 | 64 | 1010.7 | |
| 20260507182049 | 56 | 0.0 | 0.0 | 0.00 | 0.37 | 0.37 | 66 | 1010.9 | |
| 20260507181552 | 56 | 0.0 | 0.0 | 0.00 | 0.37 | 0.37 | 66 | 1010.6 | |
| 20260507181047 | 56 | 0.0 | 0.0 | 0.00 | 0.37 | 0.37 | 65 | 1010.2 | |
| 20260507180609 | 56 | 0.0 | 0.0 | 0.00 | 0.37 | 0.37 | 67 | 1010.6 | |
| 20260507180058 | 55 | 0.0 | 0.0 | 0.00 | 0.37 | 0.37 | 73 | 1010.8 | |
| 20260507175548 | 54 | 0.0 | 0.0 | 0.00 | 0.37 | 0.37 | 69 | 1010.8 | |
| 20260507175049 | 55 | 0.0 | 0.0 | 0.00 | 0.37 | 0.37 | 69 | 1011.0 | |
| 20260507174607 | 55 | 0.0 | 0.0 | 0.00 | 0.37 | 0.37 | 69 | 1011.2 | |
| 20260507174048 | 55 | 0.0 | 0.0 | 0.00 | 0.37 | 0.37 | 67 | 1011.1 |